Location: Lac Echo
(45.9375°N, 75.4580°W)
Time: 22:50:48
(UTC-04:00)

Amateur Radio Satellites - All Passes

Search period start: 05 July 2015 22:20
Search period end: 06 July 2015 22:20
Location: Lac Echo, 45.9375°N, 75.4580°W

Satellite Date Start Highest point End Downlink Frequencies (MHz)
Time Altitude Azimuth
HO-68 05 Jul 22:21:47 22:27:10 22° 271° (W) 22:32:18 435.675
TIGRISAT 05 Jul 22:22:00 22:22:51 11° 86° (E) 22:23:59 435.000
CUBEBUG 1 05 Jul 22:23:15 22:26:17 19° 63° (ENE) 22:29:25 437.445
UWE-3 05 Jul 22:33:14 22:37:10 36° 263° (W) 22:41:02 435.000/436.395/437.385
SO-50 05 Jul 22:38:53 22:40:13 11° 17° (NNE) 22:41:38 436.795
CINEMA 3 05 Jul 22:45:21 22:47:25 13° 272° (W) 22:49:15 145.822/145.860
ESTCUBE 1 05 Jul 22:45:48 22:49:54 35° 68° (ENE) 22:54:04 437.505/2401.250
M-CUBED/EXP-1 PRIME 05 Jul 22:52:21 22:56:12 35° 295° (WNW) 23:00:15 437.505
PCSat 05 Jul 22:53:59 22:57:35 18° 33° (NNE) 23:01:16 145.827
50 SAT 05 Jul 22:56:48 23:00:36 74° 76° (ENE) 23:04:27 437.505
VELOX 1 05 Jul 22:57:02 23:01:28 67° 73° (ENE) 23:05:56 145.980
UNISAT 6 05 Jul 22:59:59 23:03:45 28° 94° (E) 23:07:38 437.425
DX 1 05 Jul 23:01:07 23:05:28 62° 258° (WSW) 23:09:49 434.975-435.025
DELFI C3 05 Jul 23:01:32 23:04:31 19° 269° (W) 23:07:24 145.870
GONETS M04 05 Jul 23:02:57 23:07:15 14° 286° (WNW) 23:10:58
ZACube-1 05 Jul 23:19:03 23:21:48 16° 270° (W) 23:24:23 437.345
SPROUT 05 Jul 23:19:33 23:22:41 20° 65° (ENE) 23:25:56 437.525
UKube-1 05 Jul 23:20:06 23:24:14 42° 262° (W) 23:28:23 .
HUMSAT D 05 Jul 23:24:44 23:28:20 29° 265° (W) 23:31:54 437.325/437.525
QB50P1 05 Jul 23:29:23 23:32:44 23° 93° (E) 23:36:07 145.935-145.965
NANOSAT C BR1 05 Jul 23:42:44 23:46:28 31° 96° (E) 23:50:14 145.865
ANTELSAT 05 Jul 23:44:09 23:48:33 79° 102° (ESE) 23:53:03 437.575/2403.000
AISAT 05 Jul 23:45:00 23:49:13 39° 263° (W) 23:53:24 437.250
DUCHIFAT 1 05 Jul 23:49:04 23:52:56 35° 97° (E) 23:56:48 145.980
AUBIESAT-1 05 Jul 23:52:59 23:54:50 12° 304° (NW) 23:56:34 437.475
TISAT 1 05 Jul 23:54:42 23:58:24 30° 68° (ENE) 00:02:09 437.305
TIGRISAT 05 Jul 23:55:52 00:00:15 82° 285° (WNW) 00:04:43 435.000
POLYITAN 1 05 Jul 23:55:57 00:00:00 44° 98° (E) 00:04:02 437.675
CUBEBUG 1 05 Jul 23:57:57 00:02:18 52° 260° (W) 00:06:39 437.445
BUGSAT 1 05 Jul 23:59:41 00:03:16 30° 95° (E) 00:06:50 437.445
Cosmos 2499 06 Jul 00:06:57 00:12:49 22° 278° (W) 00:18:39 435.465 / 435.565
SO-50 06 Jul 00:17:59 00:22:22 30° 40° (NE) 00:26:45 436.795
ESTCUBE 1 06 Jul 00:22:58 00:26:50 27° 266° (W) 00:30:40 437.505/2401.250
QB50P2 06 Jul 00:25:20 00:29:34 88° 284° (WNW) 00:33:47 145.880/145.840
POPSAT HIP 1 06 Jul 00:25:39 00:29:53 90° 288° (WNW) 00:34:06 437.405
VELOX 1 06 Jul 00:36:10 00:38:33 14° 272° (W) 00:40:44 145.980
PCSat 06 Jul 00:36:34 00:42:01 73° 56° (ENE) 00:47:26 145.827
UNISAT 6 06 Jul 00:36:39 00:40:35 32° 291° (WNW) 00:44:30 437.425
SPROUT 06 Jul 00:54:23 00:58:31 44° 262° (W) 01:02:39 437.525
BEESAT 06 Jul 01:01:28 01:05:34 30° 66° (ENE) 01:09:45 436.000
Cosmos 2491 06 Jul 01:02:08 01:08:53 25° 59° (ENE) 01:15:51 435.465 / 435.565
QB50P1 06 Jul 01:04:50 01:08:41 35° 291° (WNW) 01:12:30 145.935-145.965
SWISSCUBE 06 Jul 01:16:49 01:21:20 44° 69° (ENE) 01:25:54 437.505
NANOSAT C BR1 06 Jul 01:18:41 01:22:14 26° 293° (WNW) 01:25:43 145.865
Oscar 19 06 Jul 01:21:17 01:24:15 16° 88° (E) 01:27:25 437.125/150
ANTELSAT 06 Jul 01:22:43 01:24:50 13° 299° (WNW) 01:26:47 437.575/2403.000
ITUPSAT 1 06 Jul 01:22:50 01:27:24 45° 69° (ENE) 01:32:00 437.325
DUCHIFAT 1 06 Jul 01:25:13 01:28:35 23° 294° (WNW) 01:31:53 145.980
TISAT 1 06 Jul 01:30:32 01:34:11 27° 266° (W) 01:37:47 437.305
POLYITAN 1 06 Jul 01:32:33 01:35:39 20° 295° (WNW) 01:38:37 437.675
BUGSAT 1 06 Jul 01:35:16 01:38:39 25° 293° (WNW) 01:41:58 437.445
TIGRISAT 06 Jul 01:35:30 01:36:22 10° 301° (WNW) 01:37:02 435.000
YUBILEINY 06 Jul 01:43:27 01:47:07 14° 74° (ENE) 01:51:21 435.215
AIST 1 06 Jul 01:49:20 01:52:16 18° 67° (ENE) 01:55:17
KKS-1 06 Jul 01:51:54 01:54:45 17° 62° (ENE) 01:57:44 437.445
SO-50 06 Jul 01:58:20 02:03:10 51° 240° (WSW) 02:07:53 436.795
QB50P2 06 Jul 02:03:56 02:04:50 10° 301° (WNW) 02:05:30 145.880/145.840
POPSAT HIP 1 06 Jul 02:04:06 02:05:08 11° 301° (WNW) 02:05:58 437.405
RS-15 06 Jul 02:11:34 02:21:55 54° 114° (ESE) 02:32:42 29.354- 29.394
PCSat 06 Jul 02:21:11 02:24:54 18° 253° (WSW) 02:28:26 145.827
STARS 06 Jul 02:38:51 02:42:39 30° 67° (ENE) 02:46:31 437.465
BEESAT 06 Jul 02:38:57 02:43:20 35° 264° (W) 02:47:43 436.000
SWISSCUBE 06 Jul 02:55:32 02:59:24 23° 268° (W) 03:03:12 437.505
Cosmos 2491 06 Jul 02:58:13 03:07:02 83° 263° (W) 03:15:43 435.465 / 435.565
Oscar 19 06 Jul 02:59:06 03:04:14 72° 287° (WNW) 03:09:21 437.125/150
ITUPSAT 1 06 Jul 03:01:42 03:05:32 23° 268° (W) 03:09:17 437.325
ITAMSAT 1 06 Jul 03:14:13 03:19:15 47° 99° (E) 03:24:16 435.822/435.867
Gurwin Techsat 1B 06 Jul 03:17:26 03:22:40 54° 99° (E) 03:27:52 435.225
AIST 1 06 Jul 03:26:03 03:30:16 47° 266° (W) 03:34:24
KKS-1 06 Jul 03:26:36 03:31:00 57° 259° (W) 03:35:25 437.445
JAS-2 06 Jul 03:32:27 03:38:04 29° 92° (E) 03:44:21 435.910
YUBILEINY 06 Jul 03:33:51 03:42:25 69° 94° (E) 03:51:04 435.215
AO-7 06 Jul 03:47:28 03:53:29 22° 89° (E) 03:59:48 29.400- 29.500
MOZHAYETS 4 06 Jul 03:56:04 04:00:07 33° 68° (ENE) 04:04:16
STARS 06 Jul 04:15:12 04:19:05 29° 264° (W) 04:22:56 437.465
HORYU 2 06 Jul 04:16:54 04:20:44 28° 95° (E) 04:24:39 437.375
RS-15 06 Jul 04:23:41 04:34:26 55° 320° (NW) 04:45:35 29.354- 29.394
Oscar 19 06 Jul 04:40:58 04:42:47 12° 304° (NW) 04:44:22 437.125/150
ITAMSAT 1 06 Jul 04:54:12 04:58:32 26° 297° (WNW) 05:02:46 435.822/435.867
Cosmos 2491 06 Jul 04:57:04 05:02:39 18° 283° (WNW) 05:07:47 435.465 / 435.565
Gurwin Techsat 1B 06 Jul 04:58:05 05:02:21 24° 298° (WNW) 05:06:29 435.225
JAS-2 06 Jul 05:17:00 05:23:29 61° 289° (WNW) 05:30:42 435.910
YUBILEINY 06 Jul 05:32:38 05:40:06 30° 297° (WNW) 05:47:26 435.215
MOZHAYETS 4 06 Jul 05:33:21 05:37:22 29° 266° (W) 05:41:23
PRISM 06 Jul 05:36:41 05:37:12 10° 59° (ENE) 05:37:57 437.425
AO-7 06 Jul 05:39:00 05:47:26 86° 290° (WNW) 05:55:48 29.400- 29.500
HORYU 2 06 Jul 05:53:24 05:57:24 32° 292° (WNW) 06:01:22 437.375
Cosmos 2504 06 Jul 05:59:13 06:06:01 65° 94° (E) 06:12:55 435.465 / 435.565
CUTE-I 06 Jul 06:03:43 06:06:14 14° 86° (E) 06:09:02 437.470
CUBESAT XI-V 06 Jul 06:03:55 06:08:32 57° 73° (ENE) 06:13:12 437.345
STRAND 1 06 Jul 06:04:08 06:08:16 26° 63° (ENE) 06:12:31 437.568
Cubesat XI-IV 06 Jul 06:37:02 06:41:33 27° 93° (E) 06:46:07 437.490
RS-15 06 Jul 06:40:28 06:50:02 30° 352° (N) 06:59:56 29.354- 29.394
JAS-2 06 Jul 07:04:30 07:07:38 13° 306° (NW) 07:10:34 435.910
PRISM 06 Jul 07:07:49 07:12:00 85° 75° (ENE) 07:16:14 437.425
BEESAT 3 06 Jul 07:10:18 07:14:13 46° 120° (ESE) 07:18:11 437.485
AIST 2 06 Jul 07:20:03 07:21:58 13° 111° (ESE) 07:24:05 435.215
BEESAT 2 06 Jul 07:25:02 07:29:01 52° 121° (ESE) 07:33:03 435.950
DANDE 06 Jul 07:27:09 07:32:40 28° 94° (E) 07:37:15 436.750
AO-7 06 Jul 07:32:51 07:39:16 25° 311° (NW) 07:45:26 29.400- 29.500
AUBIESAT-1 06 Jul 07:33:59 07:36:04 16° 58° (ENE) 07:38:19 437.475
ISS 06 Jul 07:39:01 07:41:41 24° 139° (SE) 07:44:22 145.825
CUTE-I 06 Jul 07:41:44 07:47:08 86° 289° (WNW) 07:52:30 437.470
O/OREOS (USA 219) 06 Jul 07:41:58 07:46:25 77° 113° (ESE) 07:50:54 437.305
STRAND 1 06 Jul 07:42:17 07:47:14 47° 261° (W) 07:52:14 437.568
CUBESAT XI-V 06 Jul 07:43:10 07:46:24 18° 271° (W) 07:49:29 437.345
CUSAT 1 06 Jul 07:52:32 07:58:31 56° 99° (E) 08:03:03 437.405
Cosmos 2504 06 Jul 07:53:20 07:58:55 25° 296° (WNW) 08:04:23 435.465 / 435.565
VERMONT LUNAR 06 Jul 07:54:44 07:57:08 20° 164° (SSE) 07:59:33 437.305
HO-68 06 Jul 07:59:40 08:01:45 12° 82° (E) 08:04:22 435.675
M-CUBED/EXP-1 PRIME 06 Jul 08:08:49 08:11:59 43° 66° (ENE) 08:15:22 437.505
GONETS M04 06 Jul 08:12:02 08:19:09 30° 83° (E) 08:26:29
Cubesat XI-IV 06 Jul 08:16:45 08:21:52 45° 292° (WNW) 08:26:55 437.490
BRITE-PL 06 Jul 08:25:06 08:28:54 30° 94° (E) 08:32:37 437.365/2234.400
DOVE 4 06 Jul 08:27:40 08:29:06 12° 87° (E) 08:30:45 437.250
PHONESAT 2.4 06 Jul 08:39:47 08:41:41 14° 156° (SSE) 08:43:38 2401.200-2431.200
BEESAT 3 06 Jul 08:48:58 08:52:22 24° 319° (NW) 08:55:46 437.485
SEEDS 06 Jul 08:53:58 08:56:47 17° 90° (E) 08:59:44 437.485
AIST 2 06 Jul 08:55:46 09:00:01 77° 307° (NW) 09:04:19 435.215
RS-15 06 Jul 08:56:09 09:06:33 38° 25° (NNE) 09:17:31 29.354- 29.394
CINEMA 3 06 Jul 08:59:21 09:00:55 12° 88° (E) 09:02:43 145.822/145.860
AAUSAT CUBESAT 2 06 Jul 09:00:46 09:02:56 14° 88° (E) 09:05:16 437.432
BEESAT 2 06 Jul 09:04:01 09:07:21 23° 321° (NW) 09:10:42 435.950
AUBIESAT-1 06 Jul 09:07:24 09:10:34 38° 256° (WSW) 09:13:53 437.475
DANDE 06 Jul 09:09:13 09:15:47 48° 284° (WNW) 09:20:46 436.750
ANTELSAT 06 Jul 09:12:33 09:13:40 11° 60° (ENE) 09:14:59 437.575/2403.000
ISS 06 Jul 09:14:40 09:17:53 61° 336° (NNW) 09:21:06 145.825
TIGRISAT 06 Jul 09:23:00 09:25:02 14° 61° (ENE) 09:27:15 435.000
CUTE-I 06 Jul 09:23:31 09:26:30 15° 303° (WNW) 09:29:16 437.470
O/OREOS (USA 219) 06 Jul 09:23:43 09:26:29 16° 314° (NW) 09:29:07 437.305
COMPASS 1 06 Jul 09:27:23 09:31:09 31° 95° (E) 09:34:56 437.405
GOMX 1 06 Jul 09:28:37 09:32:51 87° 102° (ESE) 09:37:00 467.674
VERMONT LUNAR 06 Jul 09:30:49 09:33:35 30° 181° (S) 09:36:23 437.305
Oscar 11 06 Jul 09:32:42 09:35:03 15° 88° (E) 09:37:35 145.826/435.025
CUBEBUG 2 06 Jul 09:34:21 09:36:35 14° 89° (E) 09:39:00 437.445
CUSAT 1 06 Jul 09:37:01 09:41:12 20° 290° (WNW) 09:44:34 437.405
CUTE 1.7 + AOD 2 06 Jul 09:43:26 09:47:44 70° 102° (ESE) 09:52:01 437.475
HO-68 06 Jul 09:43:56 09:51:04 66° 103° (ESE) 09:58:12 435.675
M-CUBED/EXP-1 PRIME 06 Jul 09:45:39 09:47:13 12° 266° (W) 09:48:40 437.505
CANX-2 06 Jul 09:47:06 09:51:25 85° 103° (ESE) 09:55:43 2200.000
QB50P2 06 Jul 09:47:58 09:49:14 11° 60° (ENE) 09:50:42 145.880/145.840
POPSAT HIP 1 06 Jul 09:48:20 09:49:27 11° 60° (ENE) 09:50:46 437.405
UNISAT 6 06 Jul 10:01:33 10:05:21 32° 69° (ENE) 10:09:11 437.425
FUNcube-1 06 Jul 10:03:00 10:05:48 17° 90° (E) 10:08:46 145.935
DOVE 4 06 Jul 10:03:19 10:07:27 65° 287° (WNW) 10:11:35 437.250
BRITE-PL 06 Jul 10:03:47 10:07:25 26° 294° (WNW) 10:10:52 437.365/2234.400
GONETS M04 06 Jul 10:06:43 10:15:27 66° 283° (WNW) 10:24:10
PHONESAT 2.4 06 Jul 10:16:04 10:19:07 30° 172° (S) 10:22:11 2401.200-2431.200
UWE-3 06 Jul 10:20:07 10:23:57 34° 96° (E) 10:27:54 435.000/436.395/437.385
QB50P1 06 Jul 10:24:32 10:27:57 25° 67° (ENE) 10:31:27 145.935-145.965
SEEDS 06 Jul 10:28:45 10:32:52 47° 288° (WNW) 10:36:58 437.485
CINEMA 3 06 Jul 10:34:31 10:38:39 66° 286° (WNW) 10:42:52 145.822/145.860
AAUSAT CUBESAT 2 06 Jul 10:34:48 10:38:59 59° 286° (WNW) 10:43:06 437.432
AIST 2 06 Jul 10:36:43 10:39:21 15° 328° (NNW) 10:41:53 435.215
DELFI C3 06 Jul 10:36:46 10:40:43 46° 99° (E) 10:44:40 145.870
NANOSAT C BR1 06 Jul 10:37:32 10:41:18 32° 69° (ENE) 10:45:07 145.865
DUCHIFAT 1 06 Jul 10:43:39 10:47:31 36° 70° (ENE) 10:51:26 145.980
ANTELSAT 06 Jul 10:45:34 10:49:51 88° 256° (WSW) 10:54:09 437.575/2403.000
DX 1 06 Jul 10:47:50 10:50:51 19° 91° (E) 10:54:00 434.975-435.025
VELOX 1 06 Jul 10:48:04 10:48:37 10° 86° (E) 10:49:26 145.980
POLYITAN 1 06 Jul 10:51:08 10:55:11 46° 71° (ENE) 10:59:15 437.675
ISS 06 Jul 10:51:47 10:54:40 29° 356° (N) 10:57:34 145.825
BUGSAT 1 06 Jul 10:51:55 10:55:37 31° 69° (ENE) 10:59:19 437.445
Cosmos 2499 06 Jul 10:52:34 10:59:26 60° 93° (E) 11:06:30 435.465 / 435.565
TIGRISAT 06 Jul 10:57:04 11:01:19 69° 258° (WSW) 11:05:34 435.000
ZACube-1 06 Jul 11:02:56 11:07:11 76° 102° (ESE) 11:11:29 437.345
COMPASS 1 06 Jul 11:03:08 11:06:45 27° 292° (WNW) 11:10:17 437.405
UKube-1 06 Jul 11:05:16 11:08:52 26° 94° (E) 11:12:31 .
HUMSAT D 06 Jul 11:05:35 11:09:25 35° 97° (E) 11:13:18 437.325/437.525
Oscar 11 06 Jul 11:07:23 11:11:41 59° 287° (WNW) 11:15:58 145.826/435.025
VERMONT LUNAR 06 Jul 11:07:42 11:10:01 19° 197° (SSW) 11:12:20 437.305
RS-15 06 Jul 11:09:08 11:20:51 85° 52° (NE) 11:33:04 29.354- 29.394
GOMX 1 06 Jul 11:09:29 11:10:23 10° 301° (WNW) 11:11:04 467.674
CUBEBUG 2 06 Jul 11:09:32 11:13:41 57° 287° (WNW) 11:17:54 437.445
QB50P2 06 Jul 11:20:18 11:24:33 86° 256° (WSW) 11:28:49 145.880/145.840
POPSAT HIP 1 06 Jul 11:20:29 11:24:44 88° 256° (WSW) 11:29:00 437.405
CUTE 1.7 + AOD 2 06 Jul 11:20:53 11:23:09 14° 298° (WNW) 11:25:15 437.475
CANX-2 06 Jul 11:25:08 11:26:45 12° 300° (WNW) 11:28:11 2200.000
HO-68 06 Jul 11:32:22 11:38:22 29° 302° (WNW) 11:44:14 435.675
AISAT 06 Jul 11:33:06 11:37:03 32° 96° (E) 11:41:01 437.250
FUNcube-1 06 Jul 11:38:22 11:42:25 47° 288° (WNW) 11:46:32 145.935
UNISAT 6 06 Jul 11:38:37 11:42:12 25° 266° (W) 11:45:43 437.425
CUBEBUG 1 06 Jul 11:44:48 11:48:18 24° 93° (E) 11:51:50 437.445
PHONESAT 2.4 06 Jul 11:53:39 11:56:42 29° 189° (S) 11:59:46 2401.200-2431.200
UWE-3 06 Jul 11:56:55 12:00:23 25° 293° (WNW) 12:03:51 435.000/436.395/437.385
QB50P1 06 Jul 11:59:49 12:03:41 33° 264° (W) 12:07:33 145.935-145.965
50 SAT 06 Jul 12:04:21 12:08:17 81° 101° (ESE) 12:12:13 437.505
GONETS M04 06 Jul 12:09:21 12:14:30 16° 309° (NW) 12:19:11
ESTCUBE 1 06 Jul 12:12:17 12:16:45 53° 100° (E) 12:21:11 437.505/2401.250
DELFI C3 06 Jul 12:12:42 12:15:30 18° 295° (WNW) 12:18:11 145.870
NANOSAT C BR1 06 Jul 12:13:39 12:17:12 25° 266° (W) 12:20:41 145.865
DUCHIFAT 1 06 Jul 12:20:06 12:23:28 22° 267° (W) 12:26:44 145.980
VELOX 1 06 Jul 12:21:27 12:25:54 85° 285° (WNW) 12:30:17 145.980
DX 1 06 Jul 12:23:12 12:27:23 46° 290° (WNW) 12:31:32 434.975-435.025
BUGSAT 1 06 Jul 12:27:29 12:31:06 26° 266° (W) 12:34:38 437.445
POLYITAN 1 06 Jul 12:28:24 12:31:22 18° 269° (W) 12:34:12 437.675
ISS 06 Jul 12:28:29 12:31:35 40° 16° (NNE) 12:34:40 145.825
SPROUT 06 Jul 12:38:46 12:42:21 26° 94° (E) 12:45:58 437.525
Oscar 19 06 Jul 12:40:03 12:44:27 30° 65° (ENE) 12:48:55 437.125/150
ZACube-1 06 Jul 12:41:08 12:43:03 13° 298° (WNW) 12:44:47 437.345
UKube-1 06 Jul 12:41:09 12:45:04 33° 292° (WNW) 12:48:56 .
HUMSAT D 06 Jul 12:41:39 12:45:00 23° 293° (WNW) 12:48:19 437.325/437.525
Cosmos 2499 06 Jul 12:47:14 12:53:11 27° 296° (WNW) 12:59:07 435.465 / 435.565
ITAMSAT 1 06 Jul 12:58:10 13:00:56 15° 57° (ENE) 13:03:53 435.822/435.867
AO-7 06 Jul 13:03:17 13:05:40 12° 35° (NE) 13:08:26 29.400- 29.500
Gurwin Techsat 1B 06 Jul 13:03:39 13:06:55 17° 59° (ENE) 13:10:24 435.225
AISAT 06 Jul 13:09:47 13:13:34 28° 293° (WNW) 13:17:17 437.250
TISAT 1 06 Jul 13:11:53 13:15:47 37° 97° (E) 13:19:42 437.305
CUBEBUG 1 06 Jul 13:20:45 13:24:47 36° 291° (WNW) 13:28:45 437.445
RS-15 06 Jul 13:22:32 13:32:17 30° 255° (WSW) 13:41:54 29.354- 29.394
PHONESAT 2.4 06 Jul 13:32:16 13:34:08 14° 204° (SSW) 13:35:58 2401.200-2431.200
YUBILEINY 06 Jul 13:41:00 13:49:01 39° 68° (ENE) 13:57:08 435.215
50 SAT 06 Jul 13:41:31 13:42:21 10° 299° (WNW) 13:43:00 437.505
BEESAT 3 06 Jul 13:49:55 13:51:47 13° 30° (NNE) 13:53:44 437.485
ESTCUBE 1 06 Jul 13:50:01 13:53:16 19° 297° (WNW) 13:56:22 437.505/2401.250
JAS-2 06 Jul 13:51:17 13:53:31 13° 54° (NE) 13:56:04 435.910
VELOX 1 06 Jul 14:00:30 14:01:47 11° 302° (WNW) 14:02:51 145.980
ISS 06 Jul 14:04:54 14:08:01 46° 215° (SW) 14:11:08 145.825
BEESAT 2 06 Jul 14:04:59 14:07:08 14° 31° (NNE) 14:09:21 435.950
Cosmos 2491 06 Jul 14:08:01 14:14:30 25° 80° (E) 14:21:18 435.465 / 435.565
SPROUT 06 Jul 14:14:39 14:18:28 32° 292° (WNW) 14:22:14 437.525
Oscar 19 06 Jul 14:18:54 14:23:43 39° 263° (W) 14:28:30 437.125/150
ITAMSAT 1 06 Jul 14:34:32 14:39:46 89° 80° (E) 14:45:03 435.822/435.867
BEESAT 06 Jul 14:36:09 14:40:49 49° 99° (E) 14:45:28 436.000
Gurwin Techsat 1B 06 Jul 14:41:01 14:46:20 79° 256° (WSW) 14:51:42 435.225
TISAT 1 06 Jul 14:48:05 14:51:22 22° 294° (WNW) 14:54:34 437.305
AO-7 06 Jul 14:48:47 14:56:19 41° 58° (ENE) 15:03:59 29.400- 29.500
SWISSCUBE 06 Jul 14:52:02 14:56:52 76° 103° (ESE) 15:01:40 437.505
ITUPSAT 1 06 Jul 14:58:24 15:03:16 78° 103° (ESE) 15:08:05 437.325
KKS-1 06 Jul 15:15:44 15:19:12 22° 93° (E) 15:22:44 437.445
HORYU 2 06 Jul 15:17:27 15:21:27 35° 68° (ENE) 15:25:30 437.375
PCSat 06 Jul 15:20:47 15:25:46 40° 114° (ESE) 15:30:50 145.827
BEESAT 3 06 Jul 15:26:31 15:30:35 63° 51° (NE) 15:34:34 437.485
JAS-2 06 Jul 15:32:33 15:37:44 80° 75° (ENE) 15:43:19 435.910
AIST 2 06 Jul 15:37:19 15:40:43 23° 39° (NE) 15:44:07 435.215
YUBILEINY 06 Jul 15:37:45 15:46:11 53° 270° (W) 15:54:33 435.215
Cosmos 2504 06 Jul 15:41:45 15:47:36 25° 64° (ENE) 15:54:00 435.465 / 435.565
BEESAT 2 06 Jul 15:41:52 15:45:58 71° 52° (NE) 15:50:00 435.950
AIST 1 06 Jul 15:57:22 16:01:46 88° 99° (E) 16:06:13
Cosmos 2491 06 Jul 16:01:41 16:10:32 79° 281° (W) 16:19:24 435.465 / 435.565
STARS 06 Jul 16:01:48 16:05:56 40° 98° (E) 16:10:04 437.465
O/OREOS (USA 219) 06 Jul 16:10:34 16:14:28 28° 54° (NE) 16:18:24 437.305
BEESAT 06 Jul 16:14:38 16:18:23 22° 297° (WNW) 16:22:01 436.000
SO-50 06 Jul 16:15:03 16:19:11 31° 116° (ESE) 16:23:29 436.795
ITAMSAT 1 06 Jul 16:17:44 16:20:07 13° 274° (W) 16:22:13 435.822/435.867
Gurwin Techsat 1B 06 Jul 16:25:52 16:27:19 11° 276° (W) 16:28:25 435.225
SWISSCUBE 06 Jul 16:31:16 16:34:11 16° 300° (WNW) 16:36:55 437.505
ITUPSAT 1 06 Jul 16:37:46 16:40:36 15° 301° (WNW) 16:43:15 437.325
AO-7 06 Jul 16:40:46 16:48:57 55° 259° (WSW) 16:57:08 29.400- 29.500
KKS-1 06 Jul 16:51:51 16:56:01 39° 290° (WNW) 17:00:07 437.445
HORYU 2 06 Jul 16:54:30 16:58:11 25° 266° (W) 17:01:49 437.375
PCSat 06 Jul 17:04:12 17:09:15 37° 313° (NW) 17:14:18 145.827
BEESAT 3 06 Jul 17:05:44 17:08:06 15° 248° (WSW) 17:10:17 437.485
AIST 2 06 Jul 17:15:27 17:19:35 53° 239° (WSW) 17:23:37 435.215
JAS-2 06 Jul 17:21:15 17:23:54 13° 276° (W) 17:26:19 435.910
BEESAT 2 06 Jul 17:21:30 17:23:32 13° 249° (WSW) 17:25:23 435.950
MOZHAYETS 4 06 Jul 17:25:09 17:29:44 55° 100° (E) 17:34:18
CUTE-I 06 Jul 17:27:07 17:31:42 30° 65° (ENE) 17:36:22 437.470
Cosmos 2504 06 Jul 17:33:06 17:40:36 74° 264° (W) 17:48:38 435.465 / 435.565
STARS 06 Jul 17:38:43 17:42:11 23° 295° (WNW) 17:45:33 437.465
AIST 1 06 Jul 17:39:08 17:40:13 11° 299° (WNW) 17:41:03
O/OREOS (USA 219) 06 Jul 17:49:48 17:53:58 36° 253° (WSW) 17:58:07 437.305
SO-50 06 Jul 17:55:02 17:59:37 43° 315° (NW) 18:04:19 436.795
CUBESAT XI-V 06 Jul 18:00:16 18:01:57 12° 85° (E) 18:03:54 437.345
Cubesat XI-IV 06 Jul 18:01:14 18:06:28 57° 71° (ENE) 18:11:46 437.490
Cosmos 2491 06 Jul 18:03:03 18:09:12 19° 305° (NW) 18:14:58 435.465 / 435.565
GONETS M04 06 Jul 18:18:31 18:23:42 17° 53° (NE) 18:29:17
CUSAT 1 06 Jul 18:28:04 18:30:18 24° 72° (ENE) 18:32:32 437.405
HO-68 06 Jul 18:31:35 18:35:12 15° 48° (NE) 18:39:06 435.675
PCSat 06 Jul 18:52:29 18:54:21 11° 337° (NNW) 18:56:05 145.827
GOMX 1 06 Jul 19:02:48 19:05:47 17° 63° (ENE) 19:08:51 467.674
MOZHAYETS 4 06 Jul 19:03:15 19:06:35 19° 297° (WNW) 19:09:48
CUTE-I 06 Jul 19:06:33 19:11:38 42° 262° (W) 19:16:45 437.470
Cosmos 2504 06 Jul 19:27:50 19:31:46 14° 282° (WNW) 19:35:20 435.465 / 435.565
DOVE 4 06 Jul 19:34:49 19:38:09 20° 65° (ENE) 19:41:28 437.250
CUBESAT XI-V 06 Jul 19:35:23 19:40:06 81° 285° (WNW) 19:44:45 437.345
BRITE-PL 06 Jul 19:37:13 19:42:25 53° 72° (ENE) 19:47:18 437.365/2234.400
SO-50 06 Jul 19:39:05 19:41:29 13° 338° (NNW) 19:43:48 436.795
Cubesat XI-IV 06 Jul 19:42:50 19:46:59 22° 269° (W) 19:51:02 437.490
SEEDS 06 Jul 19:48:47 19:51:32 18° 64° (ENE) 19:54:24 437.485
DANDE 06 Jul 19:48:54 19:51:22 27° 266° (W) 19:53:38 436.750
STRAND 1 06 Jul 19:50:07 19:55:06 48° 99° (E) 20:00:04 437.568
AAUSAT CUBESAT 2 06 Jul 19:54:27 19:56:34 14° 62° (ENE) 19:58:50 437.432
CINEMA 3 06 Jul 20:03:17 20:06:04 17° 64° (ENE) 20:08:53 145.822/145.860
GONETS M04 06 Jul 20:13:50 20:22:33 73° 78° (ENE) 20:31:14
HO-68 06 Jul 20:14:42 20:21:42 63° 68° (ENE) 20:28:46 435.675
COMPASS 1 06 Jul 20:21:02 20:24:36 29° 68° (ENE) 20:28:15 437.405
PRISM 06 Jul 20:22:58 20:27:11 82° 285° (WNW) 20:31:22 437.425
Oscar 11 06 Jul 20:30:07 20:32:46 17° 63° (ENE) 20:35:33 145.826/435.025
CUBEBUG 2 06 Jul 20:35:17 20:37:59 17° 64° (ENE) 20:40:46 437.445
CUTE 1.7 + AOD 2 06 Jul 20:38:26 20:42:37 67° 74° (ENE) 20:46:51 437.475
GOMX 1 06 Jul 20:38:30 20:43:33 69° 259° (WSW) 20:48:17 467.674
Cosmos 2499 06 Jul 20:39:34 20:45:53 27° 64° (ENE) 20:52:46 435.465 / 435.565
CANX-2 06 Jul 20:42:09 20:46:22 82° 76° (ENE) 20:50:37 2200.000
AUBIESAT-1 06 Jul 20:46:43 20:47:32 11° 93° (E) 20:48:38 437.475
FUNcube-1 06 Jul 21:01:31 21:04:27 19° 65° (ENE) 21:07:27 145.935
DOVE 4 06 Jul 21:11:00 21:15:40 51° 261° (W) 21:20:05 437.250
CUBESAT XI-V 06 Jul 21:15:17 21:16:49 11° 302° (WNW) 21:18:08 437.345
BRITE-PL 06 Jul 21:17:00 21:21:12 22° 269° (W) 21:25:05 437.365/2234.400
UWE-3 06 Jul 21:19:46 21:23:37 37° 70° (ENE) 21:27:29 435.000/436.395/437.385
M-CUBED/EXP-1 PRIME 06 Jul 21:21:01 21:24:42 28° 101° (E) 21:28:38 437.505
SEEDS 06 Jul 21:22:55 21:26:59 49° 261° (W) 21:31:05 437.485
DELFI C3 06 Jul 21:26:15 21:29:58 39° 71° (ENE) 21:33:46 145.870
AAUSAT CUBESAT 2 06 Jul 21:27:36 21:31:42 64° 259° (W) 21:35:51 437.432
STRAND 1 06 Jul 21:29:51 21:34:04 25° 297° (WNW) 21:38:09 437.568
CINEMA 3 06 Jul 21:38:35 21:42:57 54° 260° (W) 21:47:10 145.822/145.860
DX 1 06 Jul 21:45:43 21:49:10 24° 65° (ENE) 21:52:42 434.975-435.025
VELOX 1 06 Jul 21:47:08 21:49:32 15° 61° (ENE) 21:52:05 145.980
COMPASS 1 06 Jul 21:56:40 22:00:16 27° 266° (W) 22:03:50 437.405
HUMSAT D 06 Jul 21:59:46 22:03:27 34° 70° (ENE) 22:07:10 437.325/437.525
ZACube-1 06 Jul 22:01:13 22:05:25 80° 76° (ENE) 22:09:35 437.345
UKube-1 06 Jul 22:02:20 22:06:08 31° 67° (ENE) 22:09:59 .
HO-68 06 Jul 22:03:55 22:09:58 28° 268° (W) 22:15:54 435.675
Oscar 11 06 Jul 22:04:19 22:08:34 56° 260° (W) 22:12:50 145.826/435.025
CUBEBUG 2 06 Jul 22:10:13 22:14:22 50° 261° (W) 22:18:27 437.445
CUTE 1.7 + AOD 2 06 Jul 22:17:13 22:19:04 12° 273° (W) 22:20:43 437.475
